[[{"header":{"parameterUnit":"m.s-1","parameterCategory":1,"la1":30.2991,"la2":30.254,"lo1":-89.0895,"lo2":-89.0444,"dy":0.0017,"dx":0.0017,"nx":28,"ny":28,"refTime":"2025-04-01T03:00:00:Z","depth":0,"parameterNumber":2,"parameterNumberName":"U-component_of_WINDS"},"data":[0,0,0,0,0,0,0,0,0,0,0,0,0,0,0,0,0,0,0,0,0,0,0,0,0,0,0,0,0,0,0,0,0,0,0,0,0,0,0,0,0,0,0,0,0,0,0,0,0,0,0,0,0,0,0,0,0,0,-4.2161,-4.2162,0,-4.2271,-4.2273,-4.2274,-4.2293,-4.2292,-4.2291,-4.2291,-4.2403,-4.2406,-4.241,0,0,0,0,0,0,0,0,0,0,0,0,0,-4.1968,-4.1971,-4.2161,-4.2162,-4.2164,-4.2271,-4.2273,-4.2274,-4.2293,-4.2292,-4.2291,-4.229,-4.2401,-4.2406,-4.2411,0,0,0,0,0,0,0,0,0,0,0,0,0,-4.2062,-4.1972,-4.2161,-4.2186,-4.219,-4.2271,-4.2273,-4.2275,-4.2294,-4.2292,-4.2291,-4.229,-4.24,-4.2406,-4.2411,-4.2474,0,0,-4.2429,-4.2431,0,0,0,0,0,0,0,0,-4.2057,-4.2069,-4.2181,-4.2185,-4.2189,-4.2267,-4.2246,-4.2342,-4.2294,-4.2254,-4.229,-4.2289,-4.2359,-4.2368,-4.2391,-4.248,-4.2484,-4.2429,-4.2433,-4.2435,-4.2437,0,0,0,0,0,0,0,-4.205,-4.2064,-4.2205,-4.2183,-4.2187,-4.2192,-4.2204,-4.2264,-4.2313,-4.2258,-4.2259,-4.2272,-4.236,-4.2386,-4.2394,-4.2486,-4.2429,-4.2434,-4.2438,-4.244,-4.2632,-4.2634,0,0,0,0,0,0,-4.2039,-4.2059,-4.2201,-4.2208,-4.2118,-4.2197,-4.221,-4.2243,-4.2312,-4.2321,-4.2273,-4.2273,-4.2377,-4.2387,-4.2398,-4.2476,-4.2435,-4.2441,-4.2444,-4.2631,-4.2633,-4.2634,0,0,0,0,0,0,-4.2035,-4.2051,-4.2197,-4.2134,-4.2153,-4.2202,-4.2239,-4.2246,-4.2272,-4.2324,-4.2333,-4.229,-4.2376,-4.239,-4.2455,-4.248,-4.2443,-4.2448,-4.2629,-4.2631,-4.2633,-4.2633,0,0,0,0,0,0,-4.2029,-4.205,-4.2074,-4.2134,-4.2156,-4.2252,-4.224,-4.2249,-4.2282,-4.2282,-4.2342,-4.2351,-4.2376,-4.2447,-4.2461,-4.2488,-4.2453,-4.2626,-4.263,-4.2633,-4.2631,-4.2635,-4.2638,0,0,0,0,0,-4.2022,-4.2069,-4.2075,-4.2092,-4.2187,-4.2253,-4.2266,-4.2294,-4.2283,-4.2308,-4.2342,-4.2349,-4.2476,-4.2453,-4.247,-4.2498,-4.2625,-4.2629,-4.2632,-4.2629,-4.2634,-4.2638,0,0,0,0,0,0,-4.201,-4.2077,-4.2085,-4.2153,-4.2197,-4.2256,-4.2288,-4.2298,-4.2346,-4.2344,-4.2378,-4.2391,-4.2454,-4.2483,-4.2457,-4.2563,-4.255,-4.2557,-4.2541,-4.2547,-4.2551,-4.2541,-4.2458,0,0,0,0,0,-4.2015,-4.2063,-4.212,-4.2174,-4.2196,-4.2239,-4.2268,-4.2286,-4.2334,-4.2352,-4.2391,-4.2436,-4.2487,-4.2519,-4.2568,-4.2636,-4.2649,-4.2664,-4.2668,-4.2671,-4.2676,-4.2714,-4.2721,-4.2646,-4.2646,-4.2646,0,0,-4.2026,-4.2069,-4.2097,-4.2173,-4.2209,-4.2258,-4.2254,-4.2306,-4.2342,-4.236,-4.2424,-4.2454,-4.2507,-4.2574,-4.2605,-4.26,-4.27,-4.2676,-4.2677,-4.2681,-4.2718,-4.2725,-4.2732,-4.2649,-4.2648,-4.2648,0,0,-4.2071,-4.2109,-4.2158,-4.2195,-4.2251,-4.2279,-4.2291,-4.2349,-4.237,-4.2435,-4.245,-4.2494,-4.258,-4.2617,-4.2647,-4.2708,-4.2716,-4.2723,-4.2743,-4.2779,-4.2785,-4.279,-4.2811,-4.2818,-4.2729,-4.2729,-4.2729,0,-4.2077,-4.2151,-4.2182,-4.2233,-4.2266,-4.2286,-4.2336,-4.2371,-4.244,-4.2462,-4.2455,-4.2564,-4.2601,-4.2677,-4.2692,-4.2716,-4.273,-4.2715,-4.2782,-4.2788,-4.2793,-4.2813,-4.2821,-4.2729,-4.2729,-4.2729,-4.2729,0,-4.2156,-4.2207,-4.2241,-4.2307,-4.2344,-4.2394,-4.2433,-4.2467,-4.2483,-4.2512,-4.2578,-4.2624,-4.2682,-4.2702,-4.2718,-4.2781,-4.2775,-4.2775,-4.2762,-4.28,-4.2819,-4.2827,-4.273,-4.273,-4.273,-4.2729,0,0,-4.2194,-4.2278,-4.2289,-4.232,-4.2383,-4.2423,-4.2476,-4.2533,-4.2561,-4.2609,-4.2653,-4.2726,-4.2727,-4.2761,-4.2781,-4.2814,-4.2859,-4.281,-4.2812,-4.2816,-4.293,-4.2928,-4.2936,-4.2865,-4.2867,-4.2868,-4.2925,0,-4.2245,-4.2337,-4.2368,-4.2445,-4.2492,-4.2513,-4.2558,-4.2602,-4.2631,-4.2676,-4.2709,-4.276,-4.2757,-4.2778,-4.2811,-4.2846,-4.2881,-4.2843,-4.2905,-4.2907,-4.2889,-4.2947,-4.2945,-4.2996,-4.2933,-4.2934,-4.2935,0,-4.2316,-4.2365,-4.2446,-4.2505,-4.2526,-4.2566,-4.2622,-4.2665,-4.2716,-4.2735,-4.2774,-4.2792,-4.2847,-4.2833,-4.2909,-4.2882,-4.2911,-4.2932,-4.2935,-4.294,-4.2922,-4.2952,-4.3013,-4.302,-4.2947,-4.2946,-4.2946,0,-4.2333,-4.242,-4.248,-4.2506,-4.2575,-4.2603,-4.2633,-4.2683,-4.2716,-4.2766,-4.2787,-4.2843,-4.2872,-4.2915,-4.2948,-4.2934,-4.3021,-4.3009,-4.3038,-4.3037,-4.3053,-4.3051,-4.3117,-4.3074,-4.3074,-4.3074,-4.3074,0,-4.2386,-4.2435,-4.2489,-4.2525,-4.2581,-4.2616,-4.267,-4.2702,-4.2746,-4.279,-4.2812,-4.2852,-4.2894,-4.294,-4.2967,-4.3026,-4.3039,-4.3056,-4.3062,-4.3053,-4.305,-4.307,-4.3066,-4.3076,-4.3076,-4.3075,-4.3075,0,-4.2413,-4.2452,-4.2518,-4.258,-4.2596,-4.2634,-4.2687,-4.2724,-4.2755,-4.2809,-4.2824,-4.2873,-4.2928,-4.2966,-4.3037,-4.3055,-4.3118,-4.3125,-4.3101,-4.3103,-4.3129,-4.3125,-4.3208,-4.3221,-4.3171,-4.3171,-4.3172,0,-4.2443,-4.2481,-4.2547,-4.2578,-4.2608,-4.2658,-4.2692,-4.2729,-4.2763,-4.2825,-4.2854,-4.2911,-4.2959,-4.3046,-4.3088,-4.3142,-4.3149,-4.3175,-4.3157,-4.3147,-4.3148,-4.3144,-4.3148,-4.3177,-4.3177,-4.3177,-4.3177,0,-4.2492,-4.2509,-4.2558,-4.2613,-4.2653,-4.2698,-4.2744,-4.2768,-4.2813,-4.2851,-4.2908,-4.2945,-4.3018,-4.3074,-4.3133,-4.3165,-4.3178,-4.3183,-4.3192,-4.3182,-4.3166,-4.3174,-4.3106,-4.318,-4.318,-4.318,-4.318,-4.318,-4.2521,-4.2556,-4.2607,-4.2661,-4.2699,-4.2741,-4.2779,-4.2815,-4.2863,-4.2925,-4.2944,-4.3003,-4.3055,-4.3135,-4.3168,-4.3215,-4.3213,-4.3226,-4.3229,-4.3232,-4.3231,-4.316,-4.3226,-4.3226,-4.3226,-4.3226,-4.3226,0,-4.2569,-4.2604,-4.2653,-4.2716,-4.2758,-4.2769,-4.282,-4.2854,-4.2906,-4.2953,-4.2999,-4.3065,-4.312,-4.3167,-4.3224,-4.3252,-4.326,-4.3266,-4.3263,-4.327,-4.323,-4.3216,-4.3259,-4.3259,-4.3259,-4.3259,-4.3259,-4.3259,-4.26,-4.2659,-4.2682,-4.2761,-4.2796,-4.2854,-4.2882,-4.2921,-4.2959,-4.3031,-4.3077,-4.3107,-4.3154,-4.3215,-4.3266,-4.3279,-4.3298,-4.3302,-4.3315,-4.3277,-4.3273,-4.3269,-4.3256,-4.3306,-4.3306,-4.3351,-4.3352,-4.3352]},{"header":{"parameterUnit":"m.s-1","parameterCategory":1,"la1":30.2991,"la2":30.254,"lo1":-89.0895,"lo2":-89.0444,"dy":0.0017,"dx":0.0017,"nx":28,"ny":28,"refTime":"2025-04-01T03:00:00:Z","depth":0,"parameterNumber":3,"parameterNumberName":"V-component_of_WINDS"},"data":[0,0,0,0,0,0,0,0,0,0,0,0,0,0,0,0,0,0,0,0,0,0,0,0,0,0,0,0,0,0,0,0,0,0,0,0,0,0,0,0,0,0,0,0,0,0,0,0,0,0,0,0,0,0,0,0,0,0,5.5604,5.5605,0,5.5695,5.5696,5.5697,5.5691,5.569,5.5689,5.5687,5.5778,5.5782,5.5785,0,0,0,0,0,0,0,0,0,0,0,0,0,5.5428,5.5431,5.5604,5.5605,5.5607,5.5694,5.5696,5.5697,5.5692,5.569,5.5688,5.5687,5.5777,5.5781,5.5786,0,0,0,0,0,0,0,0,0,0,0,0,0,5.551,5.5432,5.5604,5.5615,5.5616,5.5694,5.5696,5.5697,5.5692,5.569,5.5688,5.5686,5.5776,5.5781,5.5786,5.5859,0,0,5.5803,5.5805,0,0,0,0,0,0,0,0,5.5505,5.5517,5.5612,5.5614,5.5616,5.568,5.5667,5.5751,5.5692,5.5663,5.5687,5.5685,5.5747,5.5755,5.5776,5.5863,5.5867,5.5803,5.5807,5.5809,5.5811,0,0,0,0,0,0,0,5.55,5.5513,5.564,5.5613,5.5616,5.5615,5.5624,5.5683,5.5715,5.5666,5.5665,5.5676,5.5748,5.5771,5.5778,5.5868,5.5803,5.5808,5.5812,5.5814,5.6023,5.6026,0,0,0,0,0,0,5.5492,5.5508,5.5637,5.5643,5.5555,5.562,5.563,5.5661,5.5714,5.572,5.5678,5.5676,5.5762,5.5772,5.5781,5.5872,5.5809,5.5814,5.5817,5.6021,5.6024,5.6026,0,0,0,0,0,0,5.5488,5.5503,5.5633,5.5575,5.5592,5.5625,5.566,5.5664,5.5687,5.5724,5.5729,5.5695,5.5761,5.5773,5.5841,5.5875,5.5817,5.5822,5.6018,5.6022,5.6025,5.6053,0,0,0,0,0,0,5.5483,5.5502,5.553,5.5576,5.5595,5.5691,5.5662,5.5667,5.5697,5.5695,5.5741,5.5747,5.576,5.5832,5.5846,5.5882,5.5826,5.6016,5.602,5.6024,5.6049,5.6057,5.6064,0,0,0,0,0,5.5477,5.5533,5.5531,5.5547,5.563,5.5693,5.5704,5.5719,5.5699,5.5728,5.5752,5.5746,5.5869,5.5839,5.5855,5.5892,5.6013,5.6019,5.6024,5.6046,5.6056,5.6064,0,0,0,0,0,0,5.5489,5.5539,5.5538,5.561,5.5648,5.5692,5.5729,5.5728,5.5771,5.5767,5.5783,5.5794,5.5862,5.5883,5.585,5.5967,5.5939,5.5947,5.595,5.596,5.5967,5.5961,5.583,0,0,0,0,0,5.55,5.5547,5.5588,5.5649,5.5668,5.5695,5.5723,5.5731,5.577,5.5786,5.5814,5.5852,5.59,5.5931,5.5976,5.6052,5.6064,5.6086,5.6093,5.6099,5.6106,5.6151,5.6162,5.6044,5.6043,5.6043,0,0,5.5523,5.5557,5.5585,5.5652,5.5682,5.5731,5.5708,5.576,5.5797,5.5793,5.586,5.5882,5.5926,5.5998,5.6032,5.6018,5.6142,5.6105,5.611,5.6114,5.6157,5.6169,5.6179,5.6047,5.6046,5.6046,0,0,5.5592,5.5621,5.5676,5.5707,5.5753,5.5771,5.5784,5.583,5.5845,5.5912,5.5911,5.5955,5.6035,5.6068,5.6094,5.6178,5.6175,5.6192,5.623,5.6274,5.6283,5.6291,5.6323,5.6334,5.6199,5.6199,5.6199,0,5.5615,5.5689,5.5704,5.5758,5.5788,5.5788,5.5845,5.5874,5.5932,5.5953,5.5938,5.6041,5.607,5.6152,5.6173,5.6193,5.621,5.6187,5.628,5.6289,5.6297,5.6328,5.634,5.6201,5.6201,5.6201,5.6201,0,5.5717,5.5768,5.5807,5.5865,5.59,5.5954,5.5978,5.6011,5.6017,5.6037,5.6106,5.6142,5.6196,5.6215,5.622,5.6299,5.6289,5.6277,5.6249,5.631,5.6339,5.6351,5.6204,5.6203,5.6203,5.6202,0,0,5.5794,5.5862,5.5876,5.5904,5.5956,5.5996,5.6051,5.6105,5.6135,5.6175,5.6223,5.6293,5.6283,5.6313,5.6322,5.636,5.6427,5.6343,5.6345,5.6359,5.6518,5.6528,5.6542,5.6425,5.6427,5.6429,5.6515,0,5.587,5.5969,5.5985,5.6072,5.6121,5.6123,5.6172,5.6209,5.623,5.6275,5.6297,5.6348,5.6329,5.6348,5.6385,5.6411,5.6459,5.6404,5.6471,5.6473,5.6462,5.6556,5.6567,5.6647,5.6526,5.6528,5.653,0,5.5971,5.6016,5.6109,5.6157,5.6178,5.6221,5.6274,5.6316,5.6359,5.6372,5.6407,5.6412,5.6471,5.644,5.6522,5.6485,5.6513,5.653,5.6533,5.6541,5.6506,5.6569,5.6672,5.6685,5.6547,5.6546,5.6545,0,5.6022,5.6105,5.6172,5.6195,5.6252,5.6283,5.6308,5.635,5.6382,5.6427,5.6449,5.65,5.6529,5.6568,5.6588,5.6563,5.6669,5.6639,5.6683,5.6682,5.6706,5.6704,5.6817,5.6721,5.6721,5.6721,5.672,0,5.6105,5.6162,5.6196,5.6238,5.6302,5.632,5.6384,5.6408,5.6445,5.6492,5.6496,5.654,5.6562,5.6609,5.6625,5.6692,5.6704,5.6716,5.672,5.6717,5.6716,5.6737,5.6733,5.6724,5.6723,5.6722,5.6722,0,5.6173,5.6198,5.6271,5.632,5.6334,5.6379,5.6421,5.6462,5.6483,5.6542,5.6557,5.659,5.6646,5.667,5.6738,5.6748,5.6826,5.6824,5.6812,5.6814,5.6857,5.6853,5.6988,5.7008,5.6897,5.6898,5.6898,0,5.6225,5.627,5.6324,5.6356,5.6383,5.6434,5.6468,5.6487,5.6522,5.6577,5.6611,5.6668,5.6714,5.6804,5.6834,5.6887,5.6888,5.6932,5.6896,5.6893,5.6892,5.689,5.6895,5.6939,5.694,5.6941,5.6941,0,5.6317,5.6328,5.6376,5.643,5.6471,5.6514,5.6556,5.6582,5.6608,5.6647,5.6706,5.6742,5.6813,5.687,5.6925,5.6951,5.6952,5.6953,5.6966,5.6964,5.6956,5.6964,5.6832,5.695,5.6949,5.6948,5.6948,5.6947,5.6381,5.6421,5.6467,5.6521,5.6555,5.6595,5.6637,5.6664,5.6713,5.6773,5.6782,5.6845,5.6889,5.6963,5.6992,5.7042,5.7031,5.7049,5.7054,5.7059,5.7063,5.6947,5.7052,5.7051,5.7051,5.7051,5.7051,0,5.6475,5.6504,5.6554,5.6614,5.6658,5.6655,5.6702,5.6738,5.6794,5.6835,5.6882,5.695,5.7006,5.7041,5.7097,5.7131,5.7132,5.7145,5.7144,5.715,5.7069,5.7053,5.7143,5.7143,5.7143,5.7143,5.7143,5.7143,5.6529,5.6598,5.6615,5.6702,5.6731,5.6794,5.6821,5.6858,5.6892,5.6968,5.7015,5.7038,5.7077,5.7137,5.7188,5.7197,5.7219,5.7233,5.7241,5.7165,5.7155,5.7146,5.7132,5.7237,5.7237,5.7319,5.7319,5.732]}]]